Regional Weather Roundup
Issued by NWS Goodland, KS

Home | Current Version | Previous Version | Graphics & Text | Print | Product List | Glossary On
Versions: 1 2 3 4 5 6 7 8 9 10 11 12 13 14 15 16 17 18 19 20 21 22 23 24 25 26 27 28 29 30 31 32 33 34 35 36 37 38 39 40 41 42 43 44 45 46 47 48 49 50
000
ASUS43 KGLD 092259
RWRGLD

GOODLAND FORECAST AREA HOURLY WEATHER ROUNDUP
NATIONAL WEATHER SERVICE GOODLAND KS
400 PM MST TUE FEB 09 2016

...OFFICIAL OBSERVATIONS...

CITY           SKY/WX    TMP DP  RH WIND       PRES   REMARKS
GOODLAND KS    SUNNY     46  31  55 NW9       30.22F
HILL CITY KS   PTSUNNY   39  22  50 CALM      30.26F
IMPERIAL NEB   CLOUDY    43  31  62 NW7       30.20F
MCCOOK NEB     PTSUNNY   36  23  59 SW6       30.22F
AKRON CO       SUNNY     43  32  65 W10       30.25S
BURLINGTON CO  SUNNY     43  29  57 NW14      30.25S
LIMON CO       SUNNY     40  26  57 W8        30.29S
$$

...UNOFFICIAL OBSERVATIONS...

CITY           SKY/WX    TMP DP  RH WIND       PRES   REMARKS
COLBY KS       PTSUNNY   39  30  70 CALM      30.23S
GOVE KS          N/A     41  32  70 MISG        N/A
LENORA KS        N/A     38  32  79 MISG        N/A
NORTON KS      CLOUDY    34  19  55 E3        30.24S
SHARON SPRINGS   N/A     48  33  57 NW17        N/A
KIT CARSON CO    N/A     49  30  48 MISG        N/A
YUMA CO          N/A     44  33  65 NW7         N/A
$$



USA.gov is the U.S. government's official web portal to all federal, state and local government web resources and services.